カタログに戻る

BREEZE-M DEB

TANK

運用中HEO
NORAD 39129·DEBRIS·🇷🇺 Russia

打ち上げ Apr 15, 2013 から Baikonur Cosmodrome

Loading…

次のパス (今後24時間)

TLE

最新Source: Space-Track

元期: Sep 14, 2026, 08:34 UTC

1 39129U 13014C   26257.35733207  .00001176  00000-0  44562-3 0  9994
2 39129  49.4309  35.3898 5838053  81.9391 336.9127  4.25187539193530

AllMySatでBREEZE-M DEBをリアルタイム追跡

Download on the App Store